Time,TemperatureF,DewpointF,PressureIn,WindDirection,WindDirectionDegrees,WindSpeedMPH,WindSpeedGustMPH,Humidity,HourlyPrecipIn,Conditions,Clouds,dailyrainin,SolarRadiationWatts/m^2,SoftwareType,DateUTC
2013-07-08 00:08:00,58.1,56.0,30.00,SE,133,0.0,0.0,91,0.00,,,0.00,0,weatherlink.com 1.10,2013-07-08 07:08:00,
2013-07-08 00:23:00,57.8,56.0,30.00,SE,133,0.0,0.0,92,0.00,,,0.00,0,weatherlink.com 1.10,2013-07-08 07:23:00,
2013-07-08 00:38:00,57.4,55.0,30.00,SE,133,0.0,0.0,92,0.00,,,0.00,0,weatherlink.com 1.10,2013-07-08 07:38:00,
2013-07-08 00:53:00,57.8,56.0,30.00,SE,133,0.0,0.0,93,0.00,,,0.00,0,weatherlink.com 1.10,2013-07-08 07:53:00,
2013-07-08 01:08:00,58.9,57.0,30.00,SE,133,0.0,0.0,93,0.00,,,0.00,0,weatherlink.com 1.10,2013-07-08 08:08:00,
2013-07-08 01:23:00,59.6,58.0,30.00,SE,133,0.0,0.0,94,0.00,,,0.00,0,weatherlink.com 1.10,2013-07-08 08:23:00,
2013-07-08 01:38:00,60.6,59.0,30.00,SE,133,0.0,0.0,94,0.00,,,0.00,0,weatherlink.com 1.10,2013-07-08 08:38:00,
2013-07-08 01:54:00,61.5,60.0,30.00,SE,133,0.0,1.0,94,0.00,,,0.00,0,weatherlink.com 1.10,2013-07-08 08:54:00,
2013-07-08 02:09:00,62.2,61.0,30.00,SE,133,0.0,0.0,94,0.00,,,0.00,0,weatherlink.com 1.10,2013-07-08 09:09:00,
2013-07-08 02:24:00,62.3,61.0,30.00,SE,133,0.0,0.0,94,0.00,,,0.00,0,weatherlink.com 1.10,2013-07-08 09:24:00,
2013-07-08 02:39:00,62.3,61.0,30.00,SE,133,0.0,0.0,94,0.00,,,0.00,0,weatherlink.com 1.10,2013-07-08 09:39:00,
2013-07-08 02:54:00,62.3,61.0,30.00,SE,133,0.0,0.0,94,0.00,,,0.00,0,weatherlink.com 1.10,2013-07-08 09:54:00,
2013-07-08 03:09:00,62.3,61.0,30.00,SE,133,0.0,0.0,94,0.00,,,0.00,0,weatherlink.com 1.10,2013-07-08 10:09:00,
2013-07-08 03:24:00,62.1,60.0,29.99,SE,133,0.0,0.0,94,0.00,,,0.00,0,weatherlink.com 1.10,2013-07-08 10:24:00,
2013-07-08 03:39:00,61.9,60.0,30.00,SE,133,0.0,1.0,94,0.00,,,0.00,0,weatherlink.com 1.10,2013-07-08 10:39:00,
2013-07-08 03:54:00,61.9,60.0,30.00,SE,133,0.0,0.0,94,0.00,,,0.00,0,weatherlink.com 1.10,2013-07-08 10:54:00,
2013-07-08 04:09:00,61.8,60.0,30.00,SE,133,0.0,0.0,94,0.00,,,0.00,0,weatherlink.com 1.10,2013-07-08 11:09:00,
2013-07-08 04:24:00,61.7,60.0,30.00,SE,133,0.0,0.0,95,0.00,,,0.00,0,weatherlink.com 1.10,2013-07-08 11:24:00,
2013-07-08 04:39:00,61.3,60.0,30.00,North,10,0.0,1.0,95,0.00,,,0.00,0,weatherlink.com 1.10,2013-07-08 11:39:00,
2013-07-08 04:54:00,61.0,60.0,30.00,NNW,329,0.0,2.0,95,0.00,,,0.00,0,weatherlink.com 1.10,2013-07-08 11:54:00,
2013-07-08 05:09:00,60.2,59.0,30.00,NNW,329,0.0,1.0,95,0.00,,,0.00,0,weatherlink.com 1.10,2013-07-08 12:09:00,
2013-07-08 05:24:00,59.7,58.0,30.01,NNW,329,0.0,1.0,95,0.00,,,0.00,0,weatherlink.com 1.10,2013-07-08 12:24:00,
2013-07-08 05:39:00,59.4,58.0,30.01,NNW,329,0.0,1.0,95,0.00,,,0.00,0,weatherlink.com 1.10,2013-07-08 12:39:00,
2013-07-08 05:54:00,59.3,58.0,30.01,NNW,329,0.0,0.0,96,0.00,,,0.00,0,weatherlink.com 1.10,2013-07-08 12:54:00,
2013-07-08 06:09:00,59.4,58.0,30.02,NNW,329,0.0,1.0,96,0.00,,,0.00,11,weatherlink.com 1.10,2013-07-08 13:09:00,
2013-07-08 06:24:00,58.8,58.0,30.02,NNW,330,0.0,1.0,96,0.00,,,0.00,28,weatherlink.com 1.10,2013-07-08 13:24:00,
2013-07-08 06:39:00,58.8,58.0,30.02,NNW,330,0.0,1.0,96,0.00,,,0.00,56,weatherlink.com 1.10,2013-07-08 13:39:00,
2013-07-08 06:54:00,58.8,58.0,30.03,NNW,330,0.0,1.0,96,0.00,,,0.00,63,weatherlink.com 1.10,2013-07-08 13:54:00,
2013-07-08 07:09:00,59.3,58.0,30.03,NNW,330,0.0,0.0,96,0.00,,,0.00,95,weatherlink.com 1.10,2013-07-08 14:09:00,
2013-07-08 07:24:00,59.8,59.0,30.04,NNW,330,0.0,1.0,96,0.00,,,0.00,116,weatherlink.com 1.10,2013-07-08 14:24:00,
2013-07-08 07:39:00,60.0,59.0,30.04,NNW,330,1.0,3.0,96,0.00,,,0.00,142,weatherlink.com 1.10,2013-07-08 14:39:00,
2013-07-08 07:54:00,59.9,59.0,30.05,NNW,333,0.0,4.0,96,0.00,,,0.00,318,weatherlink.com 1.10,2013-07-08 14:54:00,
2013-07-08 08:09:00,60.9,60.0,30.05,NW,311,1.0,4.0,96,0.00,,,0.00,330,weatherlink.com 1.10,2013-07-08 15:09:00,
2013-07-08 08:24:00,62.3,62.0,30.05,WSW,240,0.0,4.0,97,0.00,,,0.00,411,weatherlink.com 1.10,2013-07-08 15:24:00,
2013-07-08 08:39:00,63.6,63.0,30.06,WSW,258,0.0,3.0,96,0.00,,,0.00,468,weatherlink.com 1.10,2013-07-08 15:39:00,
2013-07-08 08:54:00,65.8,64.0,30.07,SE,132,1.0,5.0,95,0.00,,,0.00,550,weatherlink.com 1.10,2013-07-08 15:54:00,
2013-07-08 09:10:00,68.0,65.0,30.07,SE,141,1.0,4.0,89,0.00,,,0.00,561,weatherlink.com 1.10,2013-07-08 16:10:00,
2013-07-08 09:25:00,69.3,64.0,30.07,SE,142,1.0,4.0,84,0.00,,,0.00,584,weatherlink.com 1.10,2013-07-08 16:25:00,
2013-07-08 09:40:00,70.5,64.0,30.06,SSE,150,0.0,3.0,80,0.00,,,0.00,629,weatherlink.com 1.10,2013-07-08 16:40:00,
2013-07-08 10:10:00,74.9,65.0,30.06,SE,137,0.0,4.0,72,0.00,,,0.00,708,weatherlink.com 1.10,2013-07-08 17:10:00,
2013-07-08 10:25:00,75.8,64.0,30.06,South,178,1.0,3.0,67,0.00,,,0.00,744,weatherlink.com 1.10,2013-07-08 17:25:00,
2013-07-08 11:10:00,80.2,63.0,30.05,NW,313,1.0,3.0,57,0.00,,,0.00,828,weatherlink.com 1.10,2013-07-08 18:10:00,
2013-07-08 11:55:00,83.4,60.0,30.03,NNW,344,5.0,7.0,45,0.00,,,0.00,886,weatherlink.com 1.10,2013-07-08 18:55:00,
2013-07-08 12:10:00,84.0,61.0,30.02,NNW,336,3.0,7.0,46,0.00,,,0.00,895,weatherlink.com 1.10,2013-07-08 19:10:00,
2013-07-08 12:25:00,85.5,63.0,30.02,NNW,343,4.0,8.0,47,0.00,,,0.00,898,weatherlink.com 1.10,2013-07-08 19:25:00,
2013-07-08 12:55:00,88.4,64.0,30.01,NNW,346,4.0,8.0,44,0.00,,,0.00,916,weatherlink.com 1.10,2013-07-08 19:55:00,
2013-07-08 13:10:00,88.4,64.0,30.01,WNW,303,1.0,9.0,44,0.00,,,0.00,911,weatherlink.com 1.10,2013-07-08 20:10:00,
2013-07-08 13:56:00,91.2,64.0,30.00,WNW,288,5.0,7.0,41,0.00,,,0.00,893,weatherlink.com 1.10,2013-07-08 20:56:00,
2013-07-08 14:41:00,92.2,67.0,30.00,South,188,0.0,6.0,43,0.00,,,0.00,838,weatherlink.com 1.10,2013-07-08 21:41:00,
2013-07-08 14:56:00,92.5,63.0,29.99,NNW,327,5.0,7.0,38,0.00,,,0.00,826,weatherlink.com 1.10,2013-07-08 21:56:00,
2013-07-08 15:11:00,92.7,61.0,29.99,NW,319,3.0,11.0,35,0.00,,,0.00,795,weatherlink.com 1.10,2013-07-08 22:11:00,
2013-07-08 15:56:00,93.9,61.0,29.98,NW,309,6.0,10.0,33,0.00,,,0.00,691,weatherlink.com 1.10,2013-07-08 22:56:00,
2013-07-08 16:26:00,93.7,57.0,29.98,WNW,301,5.0,10.0,29,0.00,,,0.00,610,weatherlink.com 1.10,2013-07-08 23:26:00,
2013-07-08 17:11:00,92.6,55.0,29.97,West,281,6.0,10.0,28,0.00,,,0.00,482,weatherlink.com 1.10,2013-07-09 00:11:00,
2013-07-08 17:41:00,91.6,57.0,29.96,WNW,298,3.0,10.0,31,0.00,,,0.00,387,weatherlink.com 1.10,2013-07-09 00:41:00,
2013-07-08 18:11:00,91.5,63.0,29.96,SSW,205,0.0,8.0,39,0.00,,,0.00,292,weatherlink.com 1.10,2013-07-09 01:11:00,
2013-07-08 18:56:00,86.1,64.0,29.97,SE,146,0.0,3.0,47,0.00,,,0.00,135,weatherlink.com 1.10,2013-07-09 01:56:00,
2013-07-08 19:11:00,83.7,64.0,29.97,SE,138,0.0,2.0,51,0.00,,,0.00,88,weatherlink.com 1.10,2013-07-09 02:11:00,
2013-07-08 19:26:00,81.4,64.0,29.98,SE,137,0.0,1.0,55,0.00,,,0.00,21,weatherlink.com 1.10,2013-07-09 02:26:00,
2013-07-08 19:41:00,79.0,63.0,29.98,SE,137,0.0,1.0,58,0.00,,,0.00,14,weatherlink.com 1.10,2013-07-09 02:41:00,
2013-07-08 19:56:00,76.9,62.0,29.99,SE,138,0.0,1.0,61,0.00,,,0.00,7,weatherlink.com 1.10,2013-07-09 02:56:00,
2013-07-08 20:12:00,74.9,62.0,29.99,SE,138,0.0,1.0,65,0.00,,,0.00,0,weatherlink.com 1.10,2013-07-09 03:12:00,
2013-07-08 20:41:00,70.8,62.0,30.00,SE,138,0.0,0.0,73,0.00,,,0.00,0,weatherlink.com 1.10,2013-07-09 03:41:00,
2013-07-08 20:56:00,69.5,62.0,30.00,SE,138,0.0,0.0,76,0.00,,,0.00,0,weatherlink.com 1.10,2013-07-09 03:56:00,
2013-07-08 21:11:00,68.3,62.0,30.01,SE,137,0.0,0.0,79,0.00,,,0.00,0,weatherlink.com 1.10,2013-07-09 04:11:00,
2013-07-08 21:26:00,67.1,61.0,30.02,SE,137,0.0,0.0,81,0.00,,,0.00,0,weatherlink.com 1.10,2013-07-09 04:26:00,
2013-07-08 21:41:00,65.9,60.0,30.03,SE,137,0.0,0.0,82,0.00,,,0.00,0,weatherlink.com 1.10,2013-07-09 04:41:00,
2013-07-08 21:56:00,65.3,60.0,30.04,SE,137,0.0,0.0,84,0.00,,,0.00,0,weatherlink.com 1.10,2013-07-09 04:56:00,
2013-07-08 22:11:00,65.7,62.0,30.04,SE,137,0.0,1.0,86,0.00,,,0.00,0,weatherlink.com 1.10,2013-07-09 05:11:00,
2013-07-08 22:26:00,66.1,62.0,30.04,SE,126,0.0,1.0,87,0.00,,,0.00,0,weatherlink.com 1.10,2013-07-09 05:26:00,
2013-07-08 22:41:00,65.8,62.0,30.05,SE,126,0.0,0.0,88,0.00,,,0.00,0,weatherlink.com 1.10,2013-07-09 05:41:00,
2013-07-08 22:56:00,65.4,62.0,30.05,SE,126,0.0,0.0,88,0.00,,,0.00,0,weatherlink.com 1.10,2013-07-09 05:56:00,
2013-07-08 23:11:00,64.4,61.0,30.05,SE,126,0.0,0.0,88,0.00,,,0.00,0,weatherlink.com 1.10,2013-07-09 06:11:00,
2013-07-08 23:26:00,63.3,60.0,30.05,SE,126,0.0,0.0,88,0.00,,,0.00,0,weatherlink.com 1.10,2013-07-09 06:26:00,
2013-07-08 23:41:00,62.4,59.0,30.06,SE,126,0.0,0.0,88,0.00,,,0.00,0,weatherlink.com 1.10,2013-07-09 06:41:00,
2013-07-08 23:56:00,61.9,59.0,30.06,SE,126,0.0,0.0,89,0.00,,,0.00,0,weatherlink.com 1.10,2013-07-09 06:56:00,